Starlink 30164

operational
NORAD ID: 57500 Int'l Des: 2023-113 Owner: SPXS Country: US Constellation: starlink
LEOCIRCULAR

About Starlink 30164

Description loading...

Live Position

Loading 3D Globe...

Upcoming Passes

Altitude History

Altitude vs Time

uPlot chart will show altitude changes over time

Two-Line Element Set

1 57500U 23113F 25353.59509990 .00000445 00000-0 48018-4 0 9999
2 57500 43.0031 92.3953 0001339 284.2810 75.7884 15.02545319131618
Epoch: Dec 19, 2025 • Age: 15 hours

Current Status

Altitude 561.6 km
Velocity 7.59 km/s
Sub-Earth Point 37.08°N, 19.99°W
Launch Date Aug 7, 2023
Age 2.3 years
Type internet

Technical Details

Classification Payload
Mass 730.00 kg
Dry Mass 700.00 kg
Total Mass 730.00 kg
Length 0.30 m
Diameter 4.10 m
Span 29.00 m
Shape Box + pan
Manufacturer SPXS
Bus Type Starlink V2M
Phase Status In Orbit
Owner/State SPXS/US

Large Constellations

Loading constellations...